Torna al catalogo

STARLINK-33676

AttivoComunicazioniVLEO
NORAD 63403·PAYLOAD·🇺🇸 United States

Lanciato Mar 31, 2025 da Cape Canaveral Space Force Station

Loading…

Prossimi Passaggi (prossime 24 ore)

TLE

AggiornatoSource: CelesTrak SupGP

Epoca: Sep 15, 2026, 02:19 UTC

1 63403C 25065E   26258.09701389  .00063144  00000+0  22866-2 0  2585
2 63403  43.0019 117.2657 0001495 272.9574 281.1587 15.27554113    16

Traccia STARLINK-33676 in tempo reale con AllMySat

Download on the App Store